Date String (YYYY-MM-DD hh:mm:ss) UTC,Instrument flags,Ambient pressure (hPa),Sample flow (lpm),Bypass flow (lpm),Sample temperature (°C),Ambient temperature (°C),ASC tube jacket temperature (°C),LED temperature (°C),Box temperature (°C),Sample RH (%),Span deviation,Mass concentration (μg/m³),Mass concentration (μg/m³),Mass concentration (μg/m³)
DateTimeUTC,F1_M11,P_M11,Q1_M11,Q2_M11,T1_M11,T2_M11,T3_M11,T4_M11,T5_M11,U1_M11,ZSPAN_M11,X0_M11,X2_M11,X1_M11
2021-11-16 04:00:00,,0824.1,4.99,0.00,30.2,29.3,00.0,39.2,31.9,09.0,0000.0,0000.54,0000.35,0000.26
2021-11-16 04:01:00,,0824.1,5.01,0.00,30.2,29.3,00.0,39.2,31.8,09.0,0000.0,0000.50,0000.33,0000.25
2021-11-16 04:02:00,,0824.1,4.99,0.00,30.2,29.3,00.0,39.2,31.8,09.0,0000.0,0000.50,0000.34,0000.25
2021-11-16 04:03:00,,0824.1,5.00,0.00,30.2,29.3,00.0,39.2,31.8,09.0,0000.0,0000.51,0000.34,0000.25
2021-11-16 04:04:00,,0824.1,5.01,0.00,30.2,29.3,00.0,39.2,31.8,09.0,0000.0,0000.48,0000.34,0000.25
2021-11-16 04:05:00,,0824.0,5.00,0.00,30.2,29.3,00.0,39.2,31.8,09.1,0000.0,0000.47,0000.34,0000.25
2021-11-16 04:06:00,,0824.0,4.99,0.00,30.2,29.3,00.0,39.2,31.9,09.1,0000.0,0000.49,0000.34,0000.24
2021-11-16 04:07:00,,0824.0,5.01,0.00,30.2,29.3,00.0,39.2,31.8,09.1,0000.0,0000.49,0000.34,0000.24
2021-11-16 04:08:00,,0824.0,5.00,0.00,30.2,29.3,00.0,39.2,31.8,09.1,0000.0,0000.53,0000.36,0000.24
2021-11-16 04:09:00,,0823.8,4.99,0.00,30.2,29.3,00.0,39.2,31.9,09.1,0000.0,0000.58,0000.36,0000.24
2021-11-16 04:10:00,,0823.8,4.99,0.00,30.2,29.3,00.0,39.2,31.8,09.1,0000.0,0000.63,0000.36,0000.24
2021-11-16 04:11:00,,0823.8,4.99,0.00,30.2,29.3,00.0,39.2,31.9,09.1,0000.0,0000.67,0000.36,0000.23
2021-11-16 04:12:00,,0823.7,5.02,0.00,30.2,29.3,00.0,39.2,31.9,09.1,0000.0,0000.67,0000.36,0000.23
2021-11-16 04:13:00,,0823.7,4.99,0.00,30.2,29.3,00.0,39.2,31.9,09.1,0000.0,0000.67,0000.35,0000.23
2021-11-16 04:14:00,,0823.7,5.00,0.00,30.2,29.3,00.0,39.2,31.8,09.1,0000.0,0000.70,0000.36,0000.23
2021-11-16 04:15:00,,0823.7,5.00,0.00,30.2,29.3,00.0,39.2,31.8,09.1,0000.0,0000.81,0000.37,0000.23
2021-11-16 04:16:00,,0823.7,4.99,0.00,30.2,29.3,00.0,39.2,31.8,09.2,0000.0,0000.78,0000.35,0000.23
2021-11-16 04:17:00,,0823.7,5.01,0.00,30.2,29.3,00.0,39.2,31.8,09.1,0000.0,0000.77,0000.34,0000.23
2021-11-16 04:18:00,,0823.7,5.00,0.00,30.2,29.3,00.0,39.2,31.8,09.1,0000.0,0000.79,0000.36,0000.24
2021-11-16 04:19:00,,0823.6,4.99,0.00,30.2,29.3,00.0,39.2,31.8,09.1,0000.0,0000.76,0000.35,0000.24
2021-11-16 04:20:00,,0823.7,5.00,0.00,30.2,29.3,00.0,39.2,31.8,09.1,0000.0,0000.69,0000.34,0000.24
2021-11-16 04:21:00,,0823.6,4.99,0.00,30.2,29.3,00.0,39.2,31.8,09.2,0000.0,0000.65,0000.34,0000.24
2021-11-16 04:22:00,,0823.7,5.00,0.00,30.2,29.2,00.0,39.2,31.7,09.2,0000.0,0000.63,0000.34,0000.25
2021-11-16 04:23:00,,0823.7,5.00,0.00,30.2,29.2,00.0,39.2,31.8,09.2,0000.0,0000.64,0000.36,0000.25
2021-11-16 04:24:00,,0823.7,5.00,0.00,30.2,29.2,00.0,39.2,31.7,09.2,0000.0,0000.62,0000.34,0000.24
2021-11-16 04:25:00,,0823.7,4.99,0.00,30.2,29.2,00.0,39.2,31.8,09.2,0000.0,0000.57,0000.33,0000.24
2021-11-16 04:26:00,,0823.7,5.00,0.00,30.2,29.2,00.0,39.2,31.7,09.2,0000.0,0000.53,0000.34,0000.24
2021-11-16 04:27:00,,0823.7,5.00,0.00,30.2,29.2,00.0,39.2,31.8,09.2,0000.0,0000.57,0000.36,0000.24
2021-11-16 04:28:00,,0823.7,5.01,0.00,30.2,29.2,00.0,39.2,31.8,09.2,0000.0,0000.52,0000.34,0000.24
2021-11-16 04:29:00,,0823.7,5.01,0.00,30.2,29.2,00.0,39.2,31.9,09.2,0000.0,0000.50,0000.32,0000.23
2021-11-16 04:30:00,,0823.7,4.99,0.00,30.2,29.2,00.0,39.2,31.9,09.2,0000.0,0000.51,0000.32,0000.23
2021-11-16 04:31:00,,0823.7,5.01,0.00,30.2,29.3,00.0,39.2,31.9,09.2,0000.0,0000.51,0000.32,0000.23
2021-11-16 04:32:00,,0823.7,5.00,0.00,30.1,29.2,00.0,39.2,31.8,09.2,0000.0,0000.49,0000.32,0000.22
2021-11-16 04:33:00,,0823.7,5.02,0.00,30.2,29.3,00.0,39.2,31.8,09.2,0000.0,0000.47,0000.30,0000.22
2021-11-16 04:34:00,,0823.7,4.99,0.00,30.2,29.3,00.0,39.2,31.9,09.2,0000.0,0000.45,0000.29,0000.22
2021-11-16 04:35:00,,0823.7,5.01,0.00,30.2,29.3,00.0,39.2,31.9,09.2,0000.0,0000.46,0000.29,0000.22
2021-11-16 04:36:00,,0823.7,5.00,0.00,30.2,29.3,00.0,39.2,31.8,09.2,0000.0,0000.45,0000.29,0000.22
2021-11-16 04:37:00,,0823.7,4.99,0.00,30.2,29.3,00.0,39.2,31.8,09.2,0000.0,0000.37,0000.25,0000.21
2021-11-16 04:38:00,,0823.7,5.01,0.00,30.2,29.3,00.0,39.2,31.9,09.2,0000.0,0000.33,0000.24,0000.21
2021-11-16 04:39:00,,0823.7,5.00,0.00,30.2,29.3,00.0,39.2,31.9,09.2,0000.0,0000.35,0000.25,0000.22
2021-11-16 04:40:00,,0823.7,4.99,0.00,30.2,29.3,00.0,39.2,31.8,09.2,0000.0,0000.35,0000.25,0000.21
2021-11-16 04:41:00,,0823.8,5.00,0.00,30.2,29.3,00.0,39.2,31.9,09.2,0000.0,0000.32,0000.23,0000.21
2021-11-16 04:42:00,,0823.8,5.02,0.00,30.2,29.4,00.0,39.2,31.9,09.2,0000.0,0000.33,0000.23,0000.21
2021-11-16 04:43:00,,0823.8,4.99,0.00,30.2,29.4,00.0,39.2,31.9,09.2,0000.0,0000.35,0000.25,0000.21
2021-11-16 04:44:00,,0823.8,5.00,0.00,30.2,29.4,00.0,39.2,31.9,09.2,0000.0,0000.36,0000.26,0000.21
2021-11-16 04:45:00,,0823.8,5.00,0.00,30.2,29.4,00.0,39.2,31.9,09.2,0000.0,0000.36,0000.25,0000.21
2021-11-16 04:46:00,,0823.8,5.00,0.00,30.2,29.4,00.0,39.2,31.9,09.2,0000.0,0000.36,0000.25,0000.21
2021-11-16 04:47:00,,0823.7,5.00,0.00,30.2,29.4,00.0,39.2,32.0,09.1,0000.0,0000.48,0000.27,0000.21
2021-11-16 04:48:00,,0823.7,5.01,0.00,30.2,29.5,00.0,39.2,32.0,09.1,0000.0,0000.54,0000.29,0000.20
2021-11-16 04:49:00,,0823.7,4.99,0.00,30.3,29.5,00.0,39.3,32.0,09.1,0000.0,0000.55,0000.29,0000.20
2021-11-16 04:50:00,,0823.7,5.00,0.00,30.3,29.5,00.0,39.3,32.0,09.1,0000.0,0000.52,0000.29,0000.20
2021-11-16 04:51:00,,0823.7,5.01,0.00,30.3,29.5,00.0,39.3,32.0,09.1,0000.0,0000.47,0000.27,0000.20
2021-11-16 04:52:00,,0823.7,5.00,0.00,30.3,29.5,00.0,39.3,32.0,09.1,0000.0,0000.48,0000.28,0000.20
2021-11-16 04:53:00,,0823.7,5.01,0.00,30.3,29.5,00.0,39.3,32.0,09.1,0000.0,0000.49,0000.29,0000.20
2021-11-16 04:54:00,,0823.7,5.01,0.00,30.3,29.5,00.0,39.3,32.0,09.1,0000.0,0000.50,0000.29,0000.20
2021-11-16 04:55:00,,0823.7,5.00,0.00,30.3,29.5,00.0,39.3,32.0,09.1,0000.0,0001.21,0000.28,0000.20
2021-11-16 04:56:00,,0823.7,4.98,0.00,30.3,29.5,00.0,39.3,32.0,09.1,0000.0,0001.65,0000.28,0000.20
2021-11-16 04:57:00,,0823.7,5.00,0.00,30.3,29.5,00.0,39.3,32.0,09.1,0000.0,0001.69,0000.30,0000.20
2021-11-16 04:58:00,,0823.6,5.00,0.00,30.3,29.4,00.0,39.3,32.0,09.2,0000.0,0001.60,0000.28,0000.21
2021-11-16 04:59:00,,0823.6,4.99,0.00,30.2,29.4,00.0,39.3,32.0,09.2,0000.0,0001.51,0000.25,0000.20
